Location: Jesenik
(50.2330°N, 17.2000°E)
Time: 00:31:44
(UTC+02:00)

ISS - Pass Details

Date: 25 March 2019
Orbit: 408 x 410 km, 51.6° (Epoch: 23 April)

Event Time Altitude Azimuth Distance (km) Brightness Sun altitude
Rises 20:13:23 0° 257° (WSW) 2,332 0.8 -19.4°
Reaches altitude 10° 20:15:28 10° 258° (WSW) 1,472 -0.3 -19.7°
Enters shadow 20:18:44 82° 331° (NNW) 417 -3.8 -20.1°
